Palmer, AK

9:11 AM AKDT on July 26, 2017 (GMT -0800)
Palmer Municipal

Weather History for PAAQ - February, 2013

Change the Weather History Date:

Wednesday, February 6, 2013

  Actual Average Record
Temperature  
Mean Temperature 22 °F -  
Max Temperature 26 °F 26 °F 44 °F (1964)
Min Temperature 19 °F 10 °F -22 °F (1968)
Degree Days  
Heating Degree Days 42    
Moisture  
Dew Point 20 °F    
Average Humidity 87    
Maximum Humidity 96    
Minimum Humidity 68    
Precipitation  
Precipitation 0.09 in - - ()
Sea Level Pressure  
Sea Level Pressure 29.52 in    
Wind  
Wind Speed 2 mph (NNW)    
Max Wind Speed 7 mph    
Max Gust Speed -    
Visibility 5 miles    
Events Fog , Snow    
Averages and records for this station are not official NWS values.
T = Trace of Precipitation, MM = Missing Value Source: NWS Daily Summary

Daily Weather History Graph

Daily Weather History Graph

Search for Another Location

Airport or City:

Trip Planner

Search our weather history database for the weather conditions in past years. The results will help you decide how hot, cold, wet, or windy it might be!

Date:

Astronomy

Feb. 06, 2013 Rise Set
Actual Time 9:04 AM AKST 5:17 PM AKST
Civil Twilight 8:15 AM AKST 6:06 PM AKST
Nautical Twilight 7:23 AM AKST 6:58 PM AKST
Astronomical Twilight 6:32 AM AKST 7:49 PM AKST
Moon 6:38 AM AKST (2/6) 1:07 PM AKST (2/6)
Length of Visible Light 9h 50m
Length of Day
8h 12m
Waning Crescent, 15% of the Moon is Illuminated
Feb 6
Waning Crescent
Feb 9
New
Feb 17
First Quarter
Feb 25
Full
Mar 4
Last Quarter

Hourly Weather History & Observations

Time (AKST) Temp. Windchill Dew Point Humidity Pressure Visibility Wind Dir Wind Speed Gust Speed Precip Events Conditions
12:53 AM 21.9 °F 15.7 °F 12.9 °F 68% 29.50 in 10.0 mi North 4.6 mph - N/A   Mostly Cloudy
1:53 AM 19.0 °F - 12.9 °F 77% 29.50 in 10.0 mi Calm Calm - N/A   Overcast
2:53 AM 21.9 °F - 14.0 °F 72% 29.50 in 10.0 mi Calm Calm - N/A   Overcast
3:53 AM 19.9 °F - 16.0 °F 85% 29.49 in 10.0 mi Calm Calm - N/A   Overcast
4:53 AM 21.9 °F - 15.1 °F 75% 29.48 in 10.0 mi Calm Calm - N/A   Overcast
5:53 AM 19.9 °F - 16.0 °F 85% 29.49 in 8.0 mi Calm Calm - N/A   Overcast
6:38 AM 21.2 °F - 17.6 °F 86% 29.47 in 2.0 mi Calm Calm - 0.00 in Snow Light Snow
6:53 AM 21.9 °F 14.5 °F 19.9 °F 92% 29.48 in 2.5 mi North 5.8 mph - 0.00 in Snow Light Snow
7:01 AM 23.0 °F - 19.4 °F 86% 29.46 in 4.0 mi Calm Calm - 0.00 in Snow Light Snow
7:33 AM 23.0 °F 17.0 °F 19.4 °F 86% 29.46 in 2.5 mi North 4.6 mph - 0.00 in Snow Light Snow
7:42 AM 23.0 °F 18.4 °F 17.6 °F 80% 29.46 in 1.2 mi NNW 3.5 mph - 0.00 in Snow Light Snow
7:53 AM 23.0 °F 17.0 °F 19.9 °F 88% 29.48 in 1.5 mi NNW 4.6 mph - 0.00 in Snow Snow
8:22 AM 23.0 °F 14.7 °F 19.4 °F 86% 29.46 in 1.0 mi North 6.9 mph - 0.02 in Snow Snow
8:30 AM 23.0 °F 15.8 °F 19.4 °F 86% 29.46 in 0.8 mi North 5.8 mph - 0.02 in Snow Snow
8:39 AM 23.0 °F 14.7 °F 19.4 °F 86% 29.46 in 1.0 mi North 6.9 mph - 0.03 in Snow Snow
8:53 AM 23.0 °F 15.8 °F 19.9 °F 88% 29.48 in 1.2 mi NNW 5.8 mph - 0.04 in Snow Light Snow
9:04 AM 23.0 °F 14.7 °F 21.2 °F 93% 29.46 in 1.8 mi North 6.9 mph - 0.00 in Snow Light Snow
9:53 AM 24.1 °F 17.0 °F 21.0 °F 88% 29.48 in 1.8 mi NNW 5.8 mph - 0.00 in Snow Light Snow
10:00 AM 24.8 °F 19.1 °F 21.2 °F 86% 29.46 in 2.5 mi NNW 4.6 mph - 0.00 in Snow Light Snow
10:33 AM 24.8 °F - 21.2 °F 86% 29.48 in 1.5 mi Calm Calm - 0.01 in Snow Light Snow
10:53 AM 24.1 °F - 21.9 °F 91% 29.50 in 0.5 mi Calm Calm - 0.01 in Fog , Snow Snow
11:00 AM 24.8 °F - 21.2 °F 86% 29.48 in 0.5 mi Calm Calm - 0.01 in Fog , Snow Snow
11:20 AM 24.8 °F - 23.0 °F 93% 29.49 in 0.5 mi Calm Calm - 0.02 in Fog , Snow Snow
11:53 AM 24.1 °F 19.7 °F 23.0 °F 96% 29.51 in 1.0 mi South 3.5 mph - 0.03 in Snow Light Snow
12:41 PM 24.8 °F - 21.2 °F 86% 29.51 in 2.0 mi Calm Calm - 0.01 in Snow Light Snow
12:50 PM 24.8 °F - 21.2 °F 86% 29.52 in 1.5 mi Calm Calm - 0.01 in Snow Light Snow
12:53 PM 25.0 °F - 21.9 °F 88% 29.53 in 1.2 mi Calm Calm - 0.01 in Snow Light Snow
1:11 PM 24.8 °F 20.5 °F 21.2 °F 86% 29.52 in 1.8 mi SW 3.5 mph - 0.00 in Snow Light Snow
1:21 PM 24.8 °F 20.5 °F 21.2 °F 86% 29.53 in 2.0 mi SW 3.5 mph - 0.00 in Snow Light Snow
1:34 PM 24.8 °F - 21.2 °F 86% 29.53 in 3.0 mi Calm Calm - 0.00 in Snow Light Snow
1:44 PM 24.8 °F 20.5 °F 21.2 °F 86% 29.53 in 2.0 mi South 3.5 mph - 0.00 in Snow Light Snow
1:53 PM 25.0 °F - 23.0 °F 92% 29.55 in 2.0 mi Calm Calm - 0.00 in Snow Light Snow
2:07 PM 24.8 °F 20.5 °F 21.2 °F 86% 29.54 in 4.0 mi SSE 3.5 mph - 0.00 in Snow Light Snow
2:53 PM 25.0 °F - 21.9 °F 88% 29.57 in 9.0 mi Calm Calm - 0.00 in   Overcast
4:32 PM 24.8 °F - 23.0 °F 93% 29.57 in 5.0 mi Calm Calm - 0.00 in   Overcast
4:53 PM 25.0 °F - 23.0 °F 92% 29.59 in 6.0 mi Calm Calm - 0.00 in   Overcast
5:42 PM 24.8 °F - 23.0 °F 93% 29.57 in 7.0 mi Calm Calm - 0.00 in   Overcast
5:53 PM 25.0 °F - 23.0 °F 92% 29.59 in 7.0 mi Calm Calm - 0.00 in   Overcast
6:53 PM 25.0 °F - 23.0 °F 92% 29.61 in 9.0 mi Calm Calm - N/A   Overcast
7:25 PM 26.6 °F - 23.0 °F 86% 29.60 in 8.0 mi Calm Calm - N/A   Overcast
7:53 PM 25.0 °F - 23.0 °F 92% 29.62 in 9.0 mi Calm Calm - N/A   Overcast
8:53 PM 25.0 °F - 23.0 °F 92% 29.63 in 9.0 mi Calm Calm - N/A   Overcast
9:53 PM 26.1 °F - 21.9 °F 84% 29.64 in 9.0 mi Calm Calm - N/A   Overcast
10:53 PM 26.1 °F 21.9 °F 21.9 °F 84% 29.63 in 9.0 mi North 3.5 mph - N/A   Overcast
11:44 PM 24.8 °F - 21.2 °F 86% 29.61 in 10.0 mi Calm Calm - N/A   Overcast
11:53 PM 25.0 °F - 21.9 °F 88% 29.62 in 10.0 mi Calm Calm - N/A   Overcast